Location: Caltech
(34.1382°N, 118.1253°W)
Time: 06:09:03
(UTC-07:00)

Cosmos 1125 Rocket - Visible Passes

Search period start: 03 August 2015 00:00
Search period end: 13 August 2015 00:00
Orbit: 758 x 781 km, 74.0° (Epoch: 02 August)

Date Brightness Start Highest point End Pass type
(mag) Time Alt. Az. Time Alt. Az. Time Alt. Az.
03 Aug 6.3 01:11:20 10° NW 01:11:22 10° NW 01:11:22 10° NW visible
03 Aug 5.4 22:52:28 10° NNE 22:55:02 20° NE 22:55:02 20° NE visible
04 Aug 5.9 00:33:56 10° NW 00:35:19 17° NW 00:35:19 17° NW visible
04 Aug 5.7 22:17:15 10° NNE 22:19:00 13° NE 22:19:00 13° NE visible
04 Aug 5.4 23:57:00 10° NNW 23:59:17 26° NNW 23:59:17 26° NNW visible
05 Aug 5.0 23:20:24 10° NNW 23:23:17 33° N 23:23:17 33° N visible
06 Aug 4.8 22:44:04 10° N 22:47:19 31° NNE 22:47:19 31° NNE visible
07 Aug 6.2 00:27:00 10° NW 00:27:36 12° WNW 00:27:36 12° WNW visible
07 Aug 5.1 22:08:05 10° NNE 22:11:22 22° NE 22:11:22 22° NE visible
07 Aug 5.6 23:49:34 10° NW 23:51:39 22° NW 23:51:39 22° NW visible
08 Aug 5.5 21:32:50 10° NNE 21:35:07 13° ENE 21:35:27 13° ENE visible
08 Aug 4.9 23:12:38 10° NNW 23:15:44 36° NW 23:15:44 36° NW visible
09 Aug 4.2 22:36:01 10° NNW 22:39:51 48° N 22:39:51 48° N visible
10 Aug 4.3 21:59:41 10° N 22:03:59 38° NE 22:03:59 38° NE visible
10 Aug 5.9 23:42:39 10° NW 23:44:17 16° WNW 23:44:17 16° WNW visible
11 Aug 4.8 21:23:41 10° NNE 21:27:43 23° ENE 21:28:10 23° ENE visible
11 Aug 5.1 23:05:12 10° NW 23:08:28 29° WNW 23:08:28 29° WNW visible
12 Aug 5.4 20:48:26 10° NNE 20:50:44 13° ENE 20:52:23 12° ENE visible
12 Aug 4.0 22:28:15 10° NNW 22:32:41 57° WNW 22:32:41 57° WNW visible
